Weather History for Petersburg, WV

Change the Weather History Date:

Tuesday, April 30, 2013

  Actual Average (KEKN) Record (KEKN)
Temperature  
Mean Temperature 59 °F 54 °F  
Max Temperature 65 °F 67 °F 87 °F (1899)
Min Temperature 53 °F 41 °F 24 °F (1977)
Degree Days  
Heating Degree Days 6 11  
Month to date heating degree days 463  
Since 1 July heating degree days 5563  
Cooling Degree Days 0 0  
Month to date cooling degree days 3  
Year to date cooling degree days 3  
Growing Degree Days 9 (Base 50)    
Moisture  
Dew Point 53 °F    
Average Humidity 83    
Maximum Humidity 96    
Minimum Humidity 62    
Precipitation  
Precipitation 0.02 in 0.13 in 1.90 in (1966)
Month to date precipitation 3.80  
Year to date precipitation 14.09  
Snow  
Snow 0.00 in - - ()
Month to date snowfall  
Since 1 September snowfall  
Snow Depth -    
Sea Level Pressure  
Sea Level Pressure 30.18 in    
Wind  
Wind Speed 1 mph (ENE)    
Max Wind Speed 12 mph    
Max Gust Speed 16 mph    
Visibility 10 miles    
Events Rain    
T = Trace of Precipitation, MM = Missing Value Source: NWS Daily Summary

Daily Weather History Graph

Daily Weather History Graph

Search for Another Location

Airport:

Trip Planner

Search our weather history database for the weather conditions in past years. The results will help you decide how hot, cold, wet, or windy it might be!

Date:

Astronomy

Apr. 30, 2013 Rise Set
Actual Time 6:19 AM EDT 8:08 PM EDT
Civil Twilight 5:50 AM EDT 8:37 PM EDT
Nautical Twilight 5:15 AM EDT 9:12 PM EDT
Astronomical Twilight 4:38 AM EDT 9:49 PM EDT
Moon 12:29 AM EDT (4/30) 10:46 AM EDT (4/30)
Length of Visible Light 14h 46m
Length of Day
13h 49m
Waning Gibbous, 70% of the Moon is Illuminated
Apr 30
Waning Gibbous
May 2
Last Quarter
May 9
New
May 18
First Quarter
May 25
Full

Hourly Weather History & Observations

Time (EDT) Temp. Dew Point Humidity Pressure Visibility Wind Dir Wind Speed Gust Speed Precip Events Conditions
12:15 AM 57.7 °F 56.3 °F 95% 30.08 in 10.0 mi Calm Calm - N/A   Overcast
12:35 AM 57.7 °F 56.5 °F 96% 30.09 in 10.0 mi Calm Calm - N/A   Overcast
12:55 AM 57.7 °F 56.5 °F 96% 30.09 in 10.0 mi Calm Calm - N/A   Overcast
1:15 AM 57.4 °F 56.3 °F 96% 30.09 in 10.0 mi Calm Calm - N/A   Overcast
1:35 AM 57.4 °F 56.3 °F 96% 30.09 in 10.0 mi Calm Calm - N/A   Overcast
1:55 AM 57.4 °F 56.3 °F 96% 30.09 in 10.0 mi Calm Calm - N/A   Overcast
2:15 AM 57.4 °F 55.8 °F 94% 30.09 in 10.0 mi Calm Calm - N/A   Overcast
2:35 AM 56.7 °F 54.9 °F 94% 30.09 in 10.0 mi Calm Calm - N/A   Overcast
2:55 AM 56.5 °F 54.5 °F 93% 30.09 in 10.0 mi North 4.6 mph - N/A   Overcast
3:15 AM 56.3 °F 54.1 °F 92% 30.08 in 10.0 mi Calm Calm - N/A   Overcast
3:35 AM 55.8 °F 53.4 °F 92% 30.09 in 10.0 mi Calm Calm - N/A   Overcast
3:55 AM 55.8 °F 53.4 °F 92% 30.09 in 10.0 mi Calm Calm - N/A   Overcast
4:15 AM 55.6 °F 53.1 °F 91% 30.10 in 10.0 mi Calm Calm - N/A   Overcast
4:35 AM 55.4 °F 52.7 °F 91% 30.11 in 10.0 mi Calm Calm - N/A   Overcast
4:55 AM 55.4 °F 52.7 °F 91% 30.12 in 10.0 mi Calm Calm - N/A   Overcast
5:15 AM 54.7 °F 52.0 °F 91% 30.12 in 10.0 mi Calm Calm - N/A   Overcast
5:35 AM 54.3 °F 52.0 °F 92% 30.13 in 10.0 mi Calm Calm - N/A   Overcast
5:55 AM 54.0 °F 51.8 °F 92% 30.14 in 10.0 mi Calm Calm - N/A   Overcast
6:15 AM 53.6 °F 51.3 °F 92% 30.14 in 10.0 mi Calm Calm - N/A   Overcast
6:35 AM 53.2 °F 50.9 °F 92% 30.15 in 10.0 mi Calm Calm - N/A   Overcast
6:55 AM 53.4 °F 51.1 °F 92% 30.16 in 10.0 mi Calm Calm - N/A   Overcast
7:15 AM 53.4 °F 51.3 °F 92% 30.16 in 10.0 mi Calm Calm - N/A   Overcast
7:35 AM 53.8 °F 51.4 °F 92% 30.17 in 10.0 mi Calm Calm - N/A   Overcast
7:55 AM 54.1 °F 52.0 °F 92% 30.18 in 10.0 mi Calm Calm - N/A   Overcast
8:15 AM 54.7 °F 52.3 °F 92% 30.19 in 5.0 mi Calm Calm - N/A   Overcast
8:35 AM 54.5 °F 52.2 °F 92% 30.19 in 10.0 mi Calm Calm - N/A   Overcast
8:55 AM 54.9 °F 52.7 °F 92% 30.20 in 10.0 mi Calm Calm - N/A   Overcast
9:15 AM 55.4 °F 53.1 °F 92% 30.19 in 10.0 mi Calm Calm - N/A   Overcast
9:35 AM 55.9 °F 52.7 °F 89% 30.19 in 10.0 mi Calm Calm - N/A   Overcast
9:55 AM 56.3 °F 52.5 °F 87% 30.19 in 10.0 mi Calm Calm - N/A   Overcast
10:15 AM 56.8 °F 52.5 °F 85% 30.19 in 10.0 mi Calm Calm - N/A   Overcast
10:35 AM 57.0 °F 52.2 °F 84% 30.20 in 10.0 mi Calm Calm - N/A   Overcast
10:55 AM 57.2 °F 51.8 °F 82% 30.20 in 10.0 mi Calm Calm - N/A   Overcast
11:15 AM 57.4 °F 51.8 °F 82% 30.20 in 10.0 mi Calm Calm - N/A   Overcast
11:35 AM 58.6 °F 52.3 °F 80% 30.20 in 10.0 mi Calm Calm - N/A   Overcast
11:55 AM 59.2 °F 52.3 °F 78% 30.20 in 10.0 mi Calm Calm - N/A   Overcast
12:15 PM 60.6 °F 52.9 °F 76% 30.19 in 10.0 mi Calm Calm - N/A   Overcast
12:35 PM 61.2 °F 53.1 °F 75% 30.18 in 10.0 mi Calm Calm - N/A   Overcast
12:55 PM 61.9 °F 52.9 °F 72% 30.18 in 10.0 mi Calm Calm - N/A   Overcast
1:15 PM 62.4 °F 53.4 °F 72% 30.18 in 10.0 mi Calm Calm - N/A   Overcast
1:35 PM 62.6 °F 53.6 °F 72% 30.18 in 10.0 mi Calm Calm - N/A   Overcast
1:55 PM 63.0 °F 53.6 °F 71% 30.18 in 10.0 mi Calm Calm - N/A   Overcast
2:15 PM 64.0 °F 54.3 °F 71% 30.18 in 10.0 mi Calm Calm - N/A   Overcast
2:35 PM 65.5 °F 54.3 °F 67% 30.18 in 10.0 mi Calm Calm - N/A   Overcast
2:55 PM 65.3 °F 53.6 °F 66% 30.18 in 10.0 mi North 4.6 mph - N/A   Overcast
3:15 PM 65.1 °F 53.8 °F 67% 30.19 in 10.0 mi North 4.6 mph - N/A   Overcast
3:35 PM 65.7 °F 53.4 °F 65% 30.19 in 10.0 mi Calm Calm - N/A   Overcast
3:55 PM 65.5 °F 53.1 °F 64% 30.19 in 10.0 mi ENE 6.9 mph - N/A   Overcast
4:15 PM 65.8 °F 52.7 °F 62% 30.18 in 10.0 mi East 6.9 mph - N/A   Overcast
4:35 PM 64.9 °F 52.0 °F 63% 30.18 in 10.0 mi East 9.2 mph - N/A   Overcast
4:55 PM 64.8 °F 52.2 °F 64% 30.18 in 10.0 mi ENE 8.1 mph - N/A   Overcast
5:15 PM 63.7 °F 51.6 °F 65% 30.18 in 10.0 mi ENE 10.4 mph - N/A   Overcast
5:35 PM 62.8 °F 52.0 °F 68% 30.19 in 10.0 mi ENE 10.4 mph 16.1 mph N/A   Overcast
5:55 PM 61.7 °F 52.3 °F 71% 30.19 in 10.0 mi Calm Calm - N/A   Overcast
6:15 PM 61.0 °F 52.0 °F 72% 30.20 in 10.0 mi ENE 11.5 mph - N/A   Overcast
6:35 PM 60.6 °F 52.3 °F 74% 30.21 in 10.0 mi East 10.4 mph - N/A   Overcast
6:55 PM 61.0 °F 52.5 °F 74% 30.21 in 10.0 mi East 9.2 mph - N/A   Overcast
7:15 PM 61.3 °F 52.9 °F 74% 30.21 in 10.0 mi East 9.2 mph 16.1 mph N/A   Overcast
7:35 PM 61.3 °F 53.2 °F 75% 30.22 in 10.0 mi Calm Calm - N/A   Overcast
7:55 PM 61.0 °F 53.1 °F 75% 30.23 in 10.0 mi Calm Calm - N/A   Overcast
8:15 PM 61.0 °F 52.9 °F 75% 30.24 in 10.0 mi Calm Calm - N/A   Overcast
8:35 PM 61.0 °F 53.1 °F 75% 30.24 in 10.0 mi Calm Calm - N/A   Overcast
8:55 PM 60.4 °F 53.4 °F 78% 30.25 in 10.0 mi Calm Calm - N/A   Overcast
9:15 PM 59.0 °F 54.0 °F 83% 30.26 in 7.0 mi Calm Calm - N/A Rain Light Rain
9:35 PM 58.1 °F 54.7 °F 88% 30.27 in 10.0 mi Calm Calm - N/A   Overcast
9:55 PM 58.1 °F 55.2 °F 90% 30.28 in 10.0 mi Calm Calm - N/A   Overcast
10:15 PM 57.7 °F 55.4 °F 92% 30.28 in 10.0 mi Calm Calm - N/A   Overcast
10:35 PM 57.7 °F 55.4 °F 92% 30.28 in 10.0 mi Calm Calm - N/A Rain Light Rain
10:55 PM 57.7 °F 55.4 °F 92% 30.28 in 10.0 mi Calm Calm - N/A   Overcast
11:15 PM 57.4 °F 55.4 °F 93% 30.28 in 10.0 mi Calm Calm - N/A   Overcast
11:35 PM 57.2 °F 55.0 °F 92% 30.28 in 10.0 mi Calm Calm - N/A   Overcast
11:55 PM 56.8 °F 55.4 °F 95% 30.28 in 10.0 mi Calm Calm - N/A   Overcast